Location: Munkebjergskolens Observatorium
(55.3864°N, 10.3987°E)
Time: 14:17:20
(UTC+02:00)

Oscar 19 - Pass Details

Date: 03 April 2023
Orbit: 773 x 789 km, 98.8° (Epoch: 07 June)

Event Time Altitude Azimuth Distance (km) Brightness Sun altitude
Rises 03:46:40 0° 29° (NNE) 3,276 15.3 -22.5°
Reaches altitude 10° 03:50:44 10° 61° (ENE) 2,345 14.1 -22.1°
Maximum altitude 03:52:35 12° 82° (E) 2,220 13.6 -21.9°
Drops below altitude 10° 03:54:24 10° 103° (ESE) 2,342 13.4 -21.8°
Sets 03:58:27 0° 135° (SE) 3,268 13.8 -21.4°
